Overview Statistics Trail Chart Weather Telemetry Raw packets
 

This is the latest recevied weather packets stored in our database for station/object KC4JIR. If no packets are shown the sender has not sent any weather packets the latest 10 day(s).

<< 80 81 82 83 84 85 86 >>
Time Temp. Humidity Pressure Rain* Wind** Luminosity Snow
1787930152 23.89° C 99% 1015.5 hPa 0 mm - 113 W/m² -
1787929850 23.89° C 99% 1015.4 hPa 0 mm - 121 W/m² -
1787929546 23.89° C 99% 1015.6 hPa 0 mm - 105 W/m² -
1787929245 23.89° C 99% 1015.4 hPa 0 mm - 104 W/m² -
1787928943 23.89° C 99% 1015.5 hPa 0 mm - 79 W/m² -
1787928638 23.89° C 99% 1015.4 hPa 0 mm - 112 W/m² -
1787928337 23.89° C 99% 1015.2 hPa 0 mm - 127 W/m² -
1787925613 23.33° C 99% 1015.1 hPa 0 mm - 34 W/m² -
1787925308 23.33° C 99% 1015.1 hPa 1.78 mm - 34 W/m² -
1787925007 23.33° C 99% 1015 hPa 1.78 mm - 30 W/m² -
1787924702 23.33° C 99% 1015.1 hPa 0 mm - 27 W/m² -
1787924396 23.33° C 99% 1015.2 hPa 0 mm - 26 W/m² -
1787924091 23.33° C 99% 1014.9 hPa 0 mm - 21 W/m² -
1787923786 23.33° C 99% 1014.9 hPa 0 mm - 22 W/m² -
1787923481 22.78° C 99% 1015 hPa 1.27 mm - 22 W/m² -
1787923177 22.78° C 99% 1014.8 hPa 1.27 mm - 21 W/m² -
1787922872 22.78° C 99% 1015 hPa 0 mm - 17 W/m² -
1787922571 22.78° C 99% 1014.9 hPa 1.78 mm - 17 W/m² -
1787922270 22.78° C 99% 1014.8 hPa 1.78 mm - 20 W/m² -
1787921967 22.78° C 99% 1014.8 hPa 0 mm - 22 W/m² -
1787921662 22.78° C 99% 1014.8 hPa 0 mm - 29 W/m² -
1787921368 23.33° C 99% 1014.8 hPa 0 mm - 23 W/m² -
1787921058 23.33° C 99% 1014.6 hPa 0 mm - 23 W/m² -
1787920758 22.78° C 99% 1014.7 hPa 0 mm - 25 W/m² -
1787920458 22.78° C 99% 1014.7 hPa 0 mm - 31 W/m² -

* Rain latest hour (hover to see other rain measurements)
** Current wind speed in m/s (hover to see current wind gust speed)